Preview of NWS' New Version of Forecast
This preview is not operational and should not be used for support decisions.

Regional Weather Roundup (RWR)

Issued by National Weather Service (NWS)

                            
000
ASUS44 KMEG 212310
RWRTN 
TENNESSEE HOURLY STATE WEATHER ROUNDUP
NATIONAL WEATHER SERVICE MEMPHIS TN
600 PM CDT THU JUN 21 2018

TNZ002-004-019-021-049-052-054-088>092-220000-
WEST TENNESSEE
  
CITY           SKY/WX    TMP DP  RH WIND       PRES   REMARKS
MEMPHIS INTL   PTSUNNY   83  69  62 CALM      29.73S                  
NWS MEMPHIS      N/A     72 N/A N/A MISG        N/A                   
JACKSON        TSTM      69  69 100 W32G47    29.80R VSB 1/4          
DYERSBURG      FAIR      75  71  87 S6        29.74F                  
COVINGTON      PTSUNNY   73  68  83 SW9       29.75R                  
BOLIVAR        CLOUDY    82  72  69 SW9       29.76S                  
PARIS          PTSUNNY   79  73  83 SW6       29.74S                  
HUNTINGDON     PTSUNNY   79  73  83 CALM      29.74S                  
LEXINGTON      SUNNY     82  72  69 SW6       29.74F                  
SELMER         MOSUNNY   84  72  65 VRB7G13   29.74F                  
SAVANNAH       MOSUNNY   86  72  62 S9        29.74F HX  92           
$$

TNZ008-025-027-028-033-062-065-066-220000-
NORTH MIDDLE TENNESSEE
  
CITY           SKY/WX    TMP DP  RH WIND       PRES   REMARKS
NASHVILLE      NOT AVBL                                               
DICKSON        PTCLDY    81  70  69 VRB7G17   29.76F                  
PORTLAND       MOSUNNY   84  72  65 SW8       29.74F                  
CLARKSVILLE    FAIR      83  67  58 SW8       29.73F                  
LEBANON        PTCLDY    84  70  61 W8        29.73F                  
SMYRNA         FAIR      84  69  60 SW15      29.76F                  
MURFREESBORO   PTCLDY    84  70  61 SW12      29.74F                  
COOKEVILLE     MOSUNNY   82  72  69 VRB5G12   29.77F                  
LIVINGSTON     PTCLDY    77  70  78 SW10      29.78S                  
CROSSVILLE     CLOUDY    76  68  76 VRB5      29.83F                  
ROCKWOOD       MOCLDY    75  72  88 VRB7      29.82S                  
$$

TNZ061-075-076-078-094-096-097-220000-
SOUTH MIDDLE TENNESSEE
  
CITY           SKY/WX    TMP DP  RH WIND       PRES   REMARKS
LEWISBURG      PTCLDY    84  72  65 SW8       29.77S                  
FAYETTEVILLE   MOSUNNY   82  72  69 SW10      29.80R                  
TULLAHOMA      MOSUNNY   82  72  69 SW9       29.79S                  
WINCHESTER     SUNNY     82  72  69 SW10G17   29.79F                  
MCMINNVILLE    PTSUNNY   82  70  65 SW7G15    29.78S                  
COLUMBIA       SUNNY     84  70  61 SW10      29.75F                  
SHELBYVILLE    MOSUNNY   84  70  61 SW13      29.78S                  
$$

TNZ017-018-042-046-047-220000-
NORTHEAST TENNESSEE
  
CITY           SKY/WX    TMP DP  RH WIND       PRES   REMARKS
TRI CITIES     CLOUDY    75  71  87 SW7       29.85S                  
ELIZABETHTON   CLOUDY    73  70  88 W3        29.86R                  
GREENEVILLE    MOCLDY    73  68  83 SW6       29.86S                  
$$

TNZ012-013-036-069-073-074-220000-
CENTRAL EAST TENNESSEE
  
CITY           SKY/WX    TMP DP  RH WIND       PRES   REMARKS
KNOXVILLE      PTSUNNY   77  72  84 S7        29.80F                  
OAK RIDGE      PTSUNNY   80  72  76 S5        29.80F                  
DOWNTOWN KNOXV SUNNY     79  72  78 VRB5      29.80F                  
GATLINBURG     SUNNY     77  70  78 CALM      29.82S                  
MORRISTOWN     MOSUNNY   77  70  78 SW6       29.83S                  
JACKSBORO      CLOUDY    77  72  83 S3        29.83F                  
$$

TNZ083-085-099-220000-
SOUTHEAST TENNESSEE
  
CITY           SKY/WX    TMP DP  RH WIND       PRES   REMARKS
CHATTANOOGA    FAIR      85  69  58 SW12      29.79F                  
DAYTON         MOCLDY    82  77  83 S8        29.78S HX  91           
$$

SKY/WX REPORTED AS FAIR MEANS FEW OR NO CLOUDS BELOW
12 THOUSAND FEET.